Weather in Dolina

Ukraine / Ivano-Frankovsk District     48°58′27″N   24°00′09″E
temp.,
°C
wind,
m/s
gust,
m/s
humid.,
%
clouds,
%
prec.,
mm/h
press.,
hPa
HPBL,
m
28 january, thu
thu2823:00−4wnw4992100 0.4 1012669
02:00−4wnw3893100 0.9 1011588
05:00−5w3894100 0.4 1011469
08:00−5w3892100 0.8 1011422
11:00−3wnw367498 0.1 1010769
14:00−1w366775 0.1 1009745
17:00−4wsw23790 0.0 100857
20:00−5sw4147646 0.0 1006430
29 january, fri
fri2923:00−2sw71870100 0.0 1005505
02:00−1sw61869100 0.0 1003613
05:00−1wsw51772100 0.0 1001665
08:00−1wsw61573100 0.0 1001493
11:00+1w497199 0.0 1001878
14:00+2w6116667 0.0 10011077
17:000nw228166 0.0 100149
20:00−2ssw128883 0.0 100130
30 january, sat
sat3023:00−1ese3492100 0.1 999151
02:00−1se2387100 0.2 997116
05:00+1wsw31090100 0.0 996340
08:00+2wsw3989100 0.1 996288
11:00+4wsw398038 0.0 996784
14:00+5wsw9167157 0.0 994930
17:00+3wsw9178791 0.1 992955
20:00−1wnw10197390 1.9 9961111
31 january, sun
sun3123:00−4wnw61183100 0.1 1000969
02:00−4wnw3681100 0.1 1003676
05:00−4w2381100 0.0 1004397
08:00−4wsw1181100 0.0 1005168
11:00−3ene227199 0.0 1006509
14:00−1e456797 0.0 1005747
17:00−3ese4875100 0.0 1003669
20:00−3ese4979100 0.0 1003573
1 february, mon
mon123:00−3ese4889100 0.0 1002470
02:00−3ese3590100 0.0 999318
05:00−3ese3591100 0.0 997364
08:00−4ene2295100 0.6 997192
11:00−3nnw2288100 0.8 997325
14:00−2nw3583100 0.9 999550
17:00−2nnw3583100 0.0 1001486
20:00−4nnw259395 0.0 1005216